Time,TemperatureF,DewpointF,PressureIn,WindDirection,WindDirectionDegrees,WindSpeedMPH,WindSpeedGustMPH,Humidity,HourlyPrecipIn,Conditions,Clouds,dailyrainin,SoftwareType,DateUTC
2013-08-17 00:01:00,67.7,64.3,30.22,SW,222,1.0,7.0,89,0.00,,---,0.00,VWS V14.01,2013-08-17 04:01:00,
2013-08-17 00:06:00,67.8,64.4,30.22,SW,235,4.0,13.0,89,0.00,,---,0.00,VWS V14.01,2013-08-17 04:06:00,
2013-08-17 00:11:00,67.8,64.4,30.22,WSW,248,4.0,9.0,89,0.00,,---,0.00,VWS V14.01,2013-08-17 04:11:00,
2013-08-17 00:16:00,67.8,64.4,30.22,SW,234,6.0,12.0,89,0.00,,---,0.00,VWS V14.01,2013-08-17 04:16:00,
2013-08-17 00:21:00,67.7,64.3,30.22,SW,227,5.0,10.0,89,0.00,,---,0.00,VWS V14.01,2013-08-17 04:21:00,
2013-08-17 00:26:00,67.6,64.2,30.22,SW,233,4.0,11.0,89,0.00,,---,0.00,VWS V14.01,2013-08-17 04:26:00,
2013-08-17 00:31:00,67.6,64.2,30.22,WSW,237,6.0,10.0,89,0.00,,---,0.00,VWS V14.01,2013-08-17 04:31:00,
2013-08-17 00:36:00,67.6,64.2,30.22,WSW,239,3.0,11.0,89,0.00,,---,0.00,VWS V14.01,2013-08-17 04:36:00,
2013-08-17 00:41:00,67.7,64.7,30.22,SW,234,4.0,7.0,90,0.00,,---,0.00,VWS V14.01,2013-08-17 04:41:00,
2013-08-17 00:48:00,67.7,64.7,30.22,WSW,241,6.0,13.0,90,0.00,,---,0.00,VWS V14.01,2013-08-17 04:48:00,
2013-08-17 00:53:00,67.6,64.6,30.22,SW,234,5.0,10.0,90,0.00,,---,0.00,VWS V14.01,2013-08-17 04:53:00,
2013-08-17 00:58:00,67.4,64.4,30.22,WSW,237,4.0,10.0,90,0.00,,---,0.00,VWS V14.01,2013-08-17 04:58:00,
2013-08-17 01:03:00,67.3,64.3,30.22,WSW,249,4.0,9.0,90,0.00,,---,0.00,VWS V14.01,2013-08-17 05:03:00,
2013-08-17 01:09:00,67.1,64.1,30.22,WSW,246,5.0,8.0,90,0.00,,---,0.00,VWS V14.01,2013-08-17 05:09:00,
2013-08-17 01:14:00,67.0,64.0,30.22,WSW,242,2.0,7.0,90,0.00,,---,0.00,VWS V14.01,2013-08-17 05:14:00,
2013-08-17 01:19:00,66.9,63.9,30.22,WSW,241,5.0,7.0,90,0.00,,---,0.00,VWS V14.01,2013-08-17 05:19:00,
2013-08-17 01:24:00,66.8,64.1,30.22,WSW,241,4.0,6.0,91,0.00,,---,0.00,VWS V14.01,2013-08-17 05:24:00,
2013-08-17 01:29:00,66.7,64.0,30.22,WSW,241,4.0,6.0,91,0.00,,---,0.00,VWS V14.01,2013-08-17 05:29:00,
2013-08-17 01:34:00,66.5,63.8,30.22,WSW,242,2.0,5.0,91,0.00,,---,0.00,VWS V14.01,2013-08-17 05:34:00,
2013-08-17 01:39:00,66.5,63.8,30.22,WSW,241,4.0,7.0,91,0.00,,---,0.00,VWS V14.01,2013-08-17 05:39:00,
2013-08-17 01:45:00,66.4,63.7,30.22,SW,235,3.0,9.0,91,0.00,,---,0.00,VWS V14.01,2013-08-17 05:45:00,
2013-08-17 01:50:00,66.3,63.9,30.22,SW,235,5.0,7.0,92,0.00,,---,0.00,VWS V14.01,2013-08-17 05:50:00,
2013-08-17 01:55:00,66.3,63.9,30.23,SW,236,1.0,9.0,92,0.00,,---,0.00,VWS V14.01,2013-08-17 05:55:00,
2013-08-17 02:00:00,66.1,63.7,30.22,SW,235,1.0,6.0,92,0.00,,---,0.00,VWS V14.01,2013-08-17 06:00:00,
2013-08-17 02:05:00,66.1,63.7,30.22,SW,236,3.0,6.0,92,0.00,,---,0.00,VWS V14.01,2013-08-17 06:05:00,
2013-08-17 02:10:00,66.1,63.7,30.23,SW,236,1.0,3.0,92,0.00,,---,0.00,VWS V14.01,2013-08-17 06:10:00,
2013-08-17 02:15:00,65.9,63.5,30.23,SW,236,0.0,6.0,92,0.00,,---,0.00,VWS V14.01,2013-08-17 06:15:00,
2013-08-17 02:20:00,65.8,63.4,30.23,SW,236,2.0,3.0,92,0.00,,---,0.00,VWS V14.01,2013-08-17 06:20:00,
2013-08-17 02:25:00,65.6,63.2,30.23,SW,236,1.0,4.0,92,0.00,,---,0.00,VWS V14.01,2013-08-17 06:25:00,
2013-08-17 02:30:00,65.4,63.0,30.23,SW,235,3.0,6.0,92,0.00,,---,0.00,VWS V14.01,2013-08-17 06:30:00,
2013-08-17 02:35:00,65.3,62.9,30.23,SW,235,1.0,1.0,92,0.00,,---,0.00,VWS V14.01,2013-08-17 06:35:00,
2013-08-17 02:40:00,65.1,62.7,30.23,SW,236,0.0,1.0,92,0.00,,---,0.00,VWS V14.01,2013-08-17 06:40:00,
2013-08-17 02:45:00,64.9,62.5,30.23,SW,235,0.0,1.0,92,0.00,,---,0.00,VWS V14.01,2013-08-17 06:45:00,
2013-08-17 02:50:00,64.7,62.3,30.23,SW,235,1.0,3.0,92,0.00,,---,0.00,VWS V14.01,2013-08-17 06:50:00,
2013-08-17 02:55:00,64.6,62.5,30.23,SW,235,1.0,2.0,93,0.00,,---,0.00,VWS V14.01,2013-08-17 06:55:00,
2013-08-17 03:00:00,64.4,62.3,30.22,SW,236,1.0,3.0,93,0.00,,---,0.00,VWS V14.01,2013-08-17 07:00:00,
2013-08-17 03:05:00,64.2,61.8,30.22,SW,236,2.0,2.0,92,0.00,,---,0.00,VWS V14.01,2013-08-17 07:05:00,
2013-08-17 03:10:00,64.1,61.7,30.22,SW,235,1.0,1.0,92,0.00,,---,0.00,VWS V14.01,2013-08-17 07:10:00,
2013-08-17 03:15:00,64.0,61.6,30.22,SW,236,0.0,0.0,92,0.00,,---,0.00,VWS V14.01,2013-08-17 07:15:00,
2013-08-17 03:20:00,63.8,61.4,30.22,SW,236,1.0,2.0,92,0.00,,---,0.00,VWS V14.01,2013-08-17 07:20:00,
2013-08-17 03:25:00,63.6,61.2,30.22,SW,236,0.0,2.0,92,0.00,,---,0.00,VWS V14.01,2013-08-17 07:25:00,
2013-08-17 03:31:00,63.5,61.1,30.23,SW,235,0.0,2.0,92,0.00,,---,0.00,VWS V14.01,2013-08-17 07:31:00,
2013-08-17 03:36:00,63.4,61.0,30.22,SW,236,0.0,0.0,92,0.00,,---,0.00,VWS V14.01,2013-08-17 07:36:00,
2013-08-17 03:41:00,63.3,60.6,30.23,SW,236,0.0,1.0,91,0.00,,---,0.00,VWS V14.01,2013-08-17 07:41:00,
2013-08-17 03:46:00,63.2,60.5,30.22,SW,236,2.0,2.0,91,0.00,,---,0.00,VWS V14.01,2013-08-17 07:46:00,
2013-08-17 03:51:00,63.1,60.4,30.22,SW,236,0.0,2.0,91,0.00,,---,0.00,VWS V14.01,2013-08-17 07:51:00,
2013-08-17 03:56:00,63.0,60.3,30.22,SW,236,0.0,0.0,91,0.00,,---,0.00,VWS V14.01,2013-08-17 07:56:00,
2013-08-17 04:01:00,62.9,60.2,30.22,SW,235,0.0,0.0,91,0.00,,---,0.00,VWS V14.01,2013-08-17 08:01:00,
2013-08-17 04:07:00,62.7,60.0,30.22,SW,236,0.0,1.0,91,0.00,,---,0.00,VWS V14.01,2013-08-17 08:07:00,
2013-08-17 04:12:00,62.6,59.9,30.22,SW,236,0.0,1.0,91,0.00,,---,0.00,VWS V14.01,2013-08-17 08:12:00,
2013-08-17 04:17:00,62.5,59.8,30.22,SW,236,0.0,0.0,91,0.00,,---,0.00,VWS V14.01,2013-08-17 08:17:00,
2013-08-17 04:22:00,62.3,60.0,30.22,SW,236,0.0,2.0,92,0.00,,---,0.00,VWS V14.01,2013-08-17 08:22:00,
2013-08-17 04:27:00,62.2,59.8,30.23,SW,236,0.0,1.0,92,0.00,,---,0.00,VWS V14.01,2013-08-17 08:27:00,
2013-08-17 04:32:00,62.1,59.8,30.23,SW,236,0.0,1.0,92,0.00,,---,0.00,VWS V14.01,2013-08-17 08:32:00,
2013-08-17 04:37:00,62.0,59.7,30.22,SW,235,0.0,1.0,92,0.00,,---,0.00,VWS V14.01,2013-08-17 08:37:00,
2013-08-17 04:42:00,61.9,59.5,30.23,SW,236,0.0,0.0,92,0.00,,---,0.00,VWS V14.01,2013-08-17 08:42:00,
2013-08-17 04:48:00,61.8,59.8,30.23,SW,235,0.0,0.0,93,0.00,,---,0.00,VWS V14.01,2013-08-17 08:48:00,
2013-08-17 04:53:00,61.7,59.7,30.23,SW,236,0.0,0.0,93,0.00,,---,0.00,VWS V14.01,2013-08-17 08:53:00,
2013-08-17 04:58:00,61.5,59.5,30.23,SW,236,0.0,0.0,93,0.00,,---,0.00,VWS V14.01,2013-08-17 08:58:00,
2013-08-17 05:03:00,61.3,59.3,30.23,SW,235,0.0,0.0,93,0.00,,---,0.00,VWS V14.01,2013-08-17 09:03:00,
2013-08-17 05:08:00,61.1,59.1,30.23,SW,236,0.0,0.0,93,0.00,,---,0.00,VWS V14.01,2013-08-17 09:08:00,
2013-08-17 05:13:00,61.0,59.3,30.23,SW,236,0.0,0.0,94,0.00,,---,0.00,VWS V14.01,2013-08-17 09:13:00,
2013-08-17 05:18:00,60.9,59.2,30.23,SW,235,0.0,0.0,94,0.00,,---,0.00,VWS V14.01,2013-08-17 09:18:00,
2013-08-17 05:23:00,60.7,59.0,30.24,SW,236,0.0,1.0,94,0.00,,---,0.00,VWS V14.01,2013-08-17 09:23:00,
2013-08-17 05:28:00,60.5,58.8,30.24,SW,235,0.0,1.0,94,0.00,,---,0.00,VWS V14.01,2013-08-17 09:28:00,
2013-08-17 05:33:00,60.6,58.9,30.24,SW,236,0.0,2.0,94,0.00,,---,0.00,VWS V14.01,2013-08-17 09:33:00,
2013-08-17 05:38:00,60.6,58.9,30.24,SW,236,0.0,0.0,94,0.00,,---,0.00,VWS V14.01,2013-08-17 09:38:00,
2013-08-17 05:43:00,60.5,58.8,30.24,SW,236,0.0,0.0,94,0.00,,---,0.00,VWS V14.01,2013-08-17 09:43:00,
2013-08-17 05:48:00,60.4,58.7,30.24,SW,235,0.0,0.0,94,0.00,,---,0.00,VWS V14.01,2013-08-17 09:48:00,
2013-08-17 05:53:00,60.3,58.6,30.24,SW,236,0.0,0.0,94,0.00,,---,0.00,VWS V14.01,2013-08-17 09:53:00,
2013-08-17 05:58:00,60.2,58.5,30.24,SW,236,0.0,0.0,94,0.00,,---,0.00,VWS V14.01,2013-08-17 09:58:00,
2013-08-17 06:03:00,60.1,58.4,30.24,SW,236,0.0,0.0,94,0.00,,---,0.00,VWS V14.01,2013-08-17 10:03:00,
2013-08-17 06:08:00,59.9,58.2,30.24,SW,236,0.0,0.0,94,0.00,,---,0.00,VWS V14.01,2013-08-17 10:08:00,
2013-08-17 06:13:00,59.8,57.8,30.24,SW,236,0.0,0.0,93,0.00,,---,0.00,VWS V14.01,2013-08-17 10:13:00,
2013-08-17 06:18:00,59.8,57.8,30.24,SW,235,0.0,0.0,93,0.00,,---,0.00,VWS V14.01,2013-08-17 10:18:00,
2013-08-17 06:23:00,59.8,57.8,30.24,SW,236,0.0,1.0,93,0.00,,---,0.00,VWS V14.01,2013-08-17 10:23:00,
2013-08-17 06:28:00,59.9,57.9,30.24,SW,236,0.0,1.0,93,0.00,,---,0.00,VWS V14.01,2013-08-17 10:28:00,
2013-08-17 06:33:00,60.1,57.5,30.25,SW,235,0.0,2.0,91,0.00,,---,0.00,VWS V14.01,2013-08-17 10:33:00,
2013-08-17 06:38:00,60.5,57.6,30.25,SW,236,0.0,1.0,90,0.00,,---,0.00,VWS V14.01,2013-08-17 10:38:00,
2013-08-17 06:44:00,60.9,58.0,30.25,SW,236,0.0,2.0,90,0.00,,---,0.00,VWS V14.01,2013-08-17 10:44:00,
2013-08-17 06:49:00,61.3,58.0,30.25,SW,236,0.0,0.0,89,0.00,,---,0.00,VWS V14.01,2013-08-17 10:49:00,
2013-08-17 06:54:00,61.7,58.1,30.25,SW,236,0.0,1.0,88,0.00,,---,0.00,VWS V14.01,2013-08-17 10:54:00,
2013-08-17 06:59:00,62.1,58.5,30.25,SW,236,0.0,0.0,88,0.00,,---,0.00,VWS V14.01,2013-08-17 10:59:00,
2013-08-17 07:05:00,62.6,58.7,30.25,SW,235,0.0,0.0,87,0.00,,---,0.00,VWS V14.01,2013-08-17 11:05:00,
2013-08-17 07:10:00,63.0,58.8,30.25,SW,236,1.0,2.0,86,0.00,,---,0.00,VWS V14.01,2013-08-17 11:10:00,
2013-08-17 07:15:00,63.4,58.8,30.25,SW,236,1.0,1.0,85,0.00,,---,0.00,VWS V14.01,2013-08-17 11:15:00,
2013-08-17 07:20:00,63.8,58.9,30.25,SW,235,1.0,1.0,84,0.00,,---,0.00,VWS V14.01,2013-08-17 11:20:00,
2013-08-17 07:25:00,64.2,59.3,30.25,SW,235,0.0,0.0,84,0.00,,---,0.00,VWS V14.01,2013-08-17 11:25:00,
2013-08-17 07:34:00,64.6,59.0,30.25,SW,235,0.0,3.0,82,0.00,,---,0.00,VWS V14.01,2013-08-17 11:34:00,
2013-08-17 07:39:00,64.8,59.2,30.25,WSW,247,1.0,5.0,82,0.00,,---,0.00,VWS V14.01,2013-08-17 11:39:00,
2013-08-17 07:44:00,64.8,59.2,30.25,WSW,249,0.0,5.0,82,0.00,,---,0.00,VWS V14.01,2013-08-17 11:44:00,
2013-08-17 07:49:00,64.9,59.3,30.25,West,265,0.0,5.0,82,0.00,,---,0.00,VWS V14.01,2013-08-17 11:49:00,
2013-08-17 07:54:00,65.2,59.2,30.25,West,265,0.0,2.0,81,0.00,,---,0.00,VWS V14.01,2013-08-17 11:54:00,
2013-08-17 07:59:00,65.5,59.5,30.26,West,267,1.0,3.0,81,0.00,,---,0.00,VWS V14.01,2013-08-17 11:59:00,
2013-08-17 08:04:00,65.8,59.8,30.26,West,267,2.0,5.0,81,0.00,,---,0.00,VWS V14.01,2013-08-17 12:04:00,
2013-08-17 08:06:00,65.9,59.6,30.26,West,278,0.0,4.0,80,0.00,,---,0.00,VWS V14.01,2013-08-17 12:06:00,
2013-08-17 08:11:00,66.3,59.6,30.26,West,279,1.0,2.0,79,0.00,,---,0.00,VWS V14.01,2013-08-17 12:11:00,
2013-08-17 08:16:00,66.7,60.0,30.26,West,279,2.0,4.0,79,0.00,,---,0.00,VWS V14.01,2013-08-17 12:16:00,
2013-08-17 08:21:00,66.9,59.8,30.26,West,278,2.0,2.0,78,0.00,,---,0.00,VWS V14.01,2013-08-17 12:21:00,
2013-08-17 08:26:00,67.4,60.3,30.26,West,279,1.0,1.0,78,0.00,,---,0.00,VWS V14.01,2013-08-17 12:26:00,
2013-08-17 08:31:00,67.4,59.6,30.27,West,278,0.0,2.0,76,0.00,,---,0.00,VWS V14.01,2013-08-17 12:31:00,
2013-08-17 08:36:00,67.4,59.6,30.26,West,279,3.0,4.0,76,0.00,,---,0.00,VWS V14.01,2013-08-17 12:36:00,
2013-08-17 08:41:00,67.6,60.1,30.26,West,279,0.0,3.0,77,0.00,,---,0.00,VWS V14.01,2013-08-17 12:41:00,
2013-08-17 08:46:00,67.8,60.3,30.27,West,279,3.0,3.0,77,0.00,,---,0.00,VWS V14.01,2013-08-17 12:46:00,
2013-08-17 08:51:00,68.1,60.3,30.27,West,279,3.0,4.0,76,0.00,,---,0.00,VWS V14.01,2013-08-17 12:51:00,
2013-08-17 08:56:00,68.3,60.5,30.26,West,279,0.0,2.0,76,0.00,,---,0.00,VWS V14.01,2013-08-17 12:56:00,
2013-08-17 09:01:00,68.6,60.4,30.26,WNW,301,1.0,3.0,75,0.00,,---,0.00,VWS V14.01,2013-08-17 13:01:00,
2013-08-17 09:06:00,69.0,60.8,30.26,WNW,301,0.0,3.0,75,0.00,,---,0.00,VWS V14.01,2013-08-17 13:06:00,
2013-08-17 09:11:00,69.2,61.0,30.26,WNW,301,1.0,3.0,75,0.00,,---,0.00,VWS V14.01,2013-08-17 13:11:00,
2013-08-17 09:16:00,69.5,60.9,30.26,WNW,301,0.0,4.0,74,0.00,,---,0.00,VWS V14.01,2013-08-17 13:16:00,
2013-08-17 09:21:00,69.9,60.9,30.27,WNW,301,1.0,4.0,73,0.00,,---,0.00,VWS V14.01,2013-08-17 13:21:00,
2013-08-17 09:26:00,70.2,61.2,30.27,WNW,301,0.0,2.0,73,0.00,,---,0.00,VWS V14.01,2013-08-17 13:26:00,
2013-08-17 09:31:00,70.7,60.8,30.27,WNW,301,3.0,3.0,71,0.00,,---,0.00,VWS V14.01,2013-08-17 13:31:00,
2013-08-17 09:37:00,71.0,61.9,30.26,WNW,301,0.0,3.0,73,0.00,,---,0.00,VWS V14.01,2013-08-17 13:37:00,
2013-08-17 09:43:00,71.4,61.1,30.27,WNW,300,3.0,3.0,70,0.00,,---,0.00,VWS V14.01,2013-08-17 13:43:00,
2013-08-17 09:49:00,71.7,61.8,30.27,WNW,301,1.0,2.0,71,0.00,,---,0.00,VWS V14.01,2013-08-17 13:49:00,
2013-08-17 09:54:00,72.4,63.3,30.27,WNW,301,0.0,1.0,73,0.00,,---,0.00,VWS V14.01,2013-08-17 13:54:00,
2013-08-17 09:59:00,73.0,62.7,30.27,WNW,301,0.0,2.0,70,0.00,,---,0.00,VWS V14.01,2013-08-17 13:59:00,
2013-08-17 10:04:00,73.3,63.3,30.27,WNW,301,0.0,2.0,71,0.00,,---,0.00,VWS V14.01,2013-08-17 14:04:00,
2013-08-17 10:09:00,73.5,62.7,30.28,WNW,300,0.0,1.0,69,0.00,,---,0.00,VWS V14.01,2013-08-17 14:09:00,
2013-08-17 10:14:00,73.9,61.8,30.28,WNW,301,0.0,2.0,66,0.00,,---,0.00,VWS V14.01,2013-08-17 14:14:00,
2013-08-17 10:19:00,74.2,62.1,30.27,WNW,301,0.0,2.0,66,0.00,,---,0.00,VWS V14.01,2013-08-17 14:19:00,
2013-08-17 10:24:00,74.4,63.2,30.28,WNW,301,2.0,3.0,68,0.00,,---,0.00,VWS V14.01,2013-08-17 14:24:00,
2013-08-17 10:29:00,74.6,64.2,30.27,WNW,301,2.0,3.0,70,0.00,,---,0.00,VWS V14.01,2013-08-17 14:29:00,
2013-08-17 10:34:00,74.6,63.8,30.28,WNW,301,0.0,3.0,69,0.00,,---,0.00,VWS V14.01,2013-08-17 14:34:00,
2013-08-17 10:39:00,74.9,63.6,30.28,WNW,302,0.0,2.0,68,0.00,,---,0.00,VWS V14.01,2013-08-17 14:39:00,
2013-08-17 10:46:00,75.0,64.2,30.28,East,85,3.0,5.0,69,0.00,,---,0.00,VWS V14.01,2013-08-17 14:46:00,
2013-08-17 10:51:00,74.6,63.3,30.28,East,85,1.0,1.0,68,0.00,,---,0.00,VWS V14.01,2013-08-17 14:51:00,
2013-08-17 10:56:00,74.4,64.0,30.28,East,85,2.0,3.0,70,0.00,,---,0.00,VWS V14.01,2013-08-17 14:56:00,
2013-08-17 11:01:00,74.6,64.2,30.28,East,86,0.0,1.0,70,0.00,,---,0.00,VWS V14.01,2013-08-17 15:01:00,
2013-08-17 11:06:00,74.9,64.1,30.28,East,86,3.0,4.0,69,0.00,,---,0.00,VWS V14.01,2013-08-17 15:06:00,
2013-08-17 11:11:00,75.0,65.0,30.28,East,86,0.0,1.0,71,0.00,,---,0.00,VWS V14.01,2013-08-17 15:11:00,
2013-08-17 11:16:00,75.2,64.3,30.28,East,86,1.0,3.0,69,0.00,,---,0.00,VWS V14.01,2013-08-17 15:16:00,
2013-08-17 11:28:00,76.0,64.7,30.29,East,85,0.0,2.0,68,0.00,,---,0.00,VWS V14.01,2013-08-17 15:28:00,
2013-08-17 11:35:00,76.0,65.1,30.28,East,85,1.0,1.0,69,0.00,,---,0.00,VWS V14.01,2013-08-17 15:35:00,
2013-08-17 11:40:00,76.4,65.1,30.28,East,85,0.0,0.0,68,0.00,,---,0.00,VWS V14.01,2013-08-17 15:40:00,
2013-08-17 11:45:00,76.9,65.1,30.28,East,85,0.0,1.0,67,0.00,,---,0.00,VWS V14.01,2013-08-17 15:45:00,
2013-08-17 11:50:00,77.1,64.9,30.28,East,86,1.0,3.0,66,0.00,,---,0.00,VWS V14.01,2013-08-17 15:50:00,
2013-08-17 11:55:00,76.9,64.2,30.28,East,85,3.0,3.0,65,0.00,,---,0.00,VWS V14.01,2013-08-17 15:55:00,
2013-08-17 12:00:00,76.7,64.1,30.28,East,86,2.0,4.0,65,0.00,,---,0.00,VWS V14.01,2013-08-17 16:00:00,
2013-08-17 12:05:00,76.5,64.7,30.28,East,85,1.0,3.0,67,0.00,,---,0.00,VWS V14.01,2013-08-17 16:05:00,
2013-08-17 12:10:00,76.9,64.2,30.28,East,86,2.0,3.0,65,0.00,,---,0.00,VWS V14.01,2013-08-17 16:10:00,
2013-08-17 12:15:00,77.3,64.2,30.28,East,86,1.0,1.0,64,0.00,,---,0.00,VWS V14.01,2013-08-17 16:15:00,
2013-08-17 12:20:00,77.1,62.6,30.27,East,86,1.0,2.0,61,0.00,,---,0.00,VWS V14.01,2013-08-17 16:20:00,
2013-08-17 12:25:00,77.3,62.3,30.27,East,86,2.0,4.0,60,0.00,,---,0.00,VWS V14.01,2013-08-17 16:25:00,
2013-08-17 12:32:00,77.7,61.3,30.27,East,85,3.0,3.0,57,0.00,,---,0.00,VWS V14.01,2013-08-17 16:32:00,
2013-08-17 12:37:00,77.9,62.0,30.27,East,85,0.0,3.0,58,0.00,,---,0.00,VWS V14.01,2013-08-17 16:37:00,
2013-08-17 12:42:00,78.0,62.0,30.27,East,85,0.0,1.0,58,0.00,,---,0.00,VWS V14.01,2013-08-17 16:42:00,
2013-08-17 12:47:00,78.4,62.9,30.27,East,86,1.0,2.0,59,0.00,,---,0.00,VWS V14.01,2013-08-17 16:47:00,
2013-08-17 12:52:00,78.6,62.6,30.27,East,85,0.0,4.0,58,0.00,,---,0.00,VWS V14.01,2013-08-17 16:52:00,
2013-08-17 12:57:00,78.6,59.5,30.27,East,85,0.0,5.0,52,0.00,,---,0.00,VWS V14.01,2013-08-17 16:57:00,
2013-08-17 13:02:00,78.3,60.3,30.27,East,81,5.0,6.0,54,0.00,,---,0.00,VWS V14.01,2013-08-17 17:02:00,
2013-08-17 13:08:00,77.7,61.3,30.27,East,91,0.0,5.0,57,0.00,,---,0.00,VWS V14.01,2013-08-17 17:08:00,
2013-08-17 13:13:00,77.6,62.6,30.27,East,86,5.0,6.0,60,0.00,,---,0.00,VWS V14.01,2013-08-17 17:13:00,
2013-08-17 13:18:00,77.6,64.5,30.26,East,87,4.0,4.0,64,0.00,,---,0.00,VWS V14.01,2013-08-17 17:18:00,
2013-08-17 13:23:00,77.3,63.3,30.26,East,84,4.0,7.0,62,0.00,,---,0.00,VWS V14.01,2013-08-17 17:23:00,
2013-08-17 13:28:00,76.9,64.2,30.27,East,86,2.0,5.0,65,0.00,,---,0.00,VWS V14.01,2013-08-17 17:28:00,
2013-08-17 13:33:00,77.2,64.1,30.27,East,83,4.0,6.0,64,0.00,,---,0.00,VWS V14.01,2013-08-17 17:33:00,
2013-08-17 13:38:00,77.1,62.2,30.27,East,81,0.0,7.0,60,0.00,,---,0.00,VWS V14.01,2013-08-17 17:38:00,
2013-08-17 13:43:00,77.5,63.5,30.27,East,85,1.0,5.0,62,0.00,,---,0.00,VWS V14.01,2013-08-17 17:43:00,
2013-08-17 13:48:00,77.2,62.2,30.27,East,81,4.0,5.0,60,0.00,,---,0.00,VWS V14.01,2013-08-17 17:48:00,
2013-08-17 13:58:00,76.9,63.4,30.27,East,83,2.0,4.0,63,0.00,,---,0.00,VWS V14.01,2013-08-17 17:58:00,
2013-08-17 14:03:00,76.9,63.8,30.27,East,99,2.0,7.0,64,0.00,,---,0.00,VWS V14.01,2013-08-17 18:03:00,
2013-08-17 14:08:00,77.0,63.9,30.26,East,79,2.0,7.0,64,0.00,,---,0.00,VWS V14.01,2013-08-17 18:08:00,
2013-08-17 14:13:00,77.0,63.0,30.27,ENE,60,6.0,8.0,62,0.00,,---,0.00,VWS V14.01,2013-08-17 18:13:00,
2013-08-17 14:18:00,76.6,64.0,30.26,ENE,77,6.0,8.0,65,0.00,,---,0.00,VWS V14.01,2013-08-17 18:18:00,
2013-08-17 14:23:00,76.2,64.0,30.26,ENE,64,4.0,7.0,66,0.00,,---,0.00,VWS V14.01,2013-08-17 18:23:00,
2013-08-17 14:28:00,76.2,63.1,30.26,ENE,65,7.0,9.0,64,0.00,,---,0.00,VWS V14.01,2013-08-17 18:28:00,
2013-08-17 14:33:00,76.2,64.4,30.26,ENE,58,1.0,9.0,67,0.00,,---,0.00,VWS V14.01,2013-08-17 18:33:00,
2013-08-17 14:38:00,76.2,64.0,30.26,NE,46,0.0,10.0,66,0.00,,---,0.00,VWS V14.01,2013-08-17 18:38:00,
2013-08-17 14:43:00,76.7,64.1,30.26,ENE,68,5.0,5.0,65,0.00,,---,0.00,VWS V14.01,2013-08-17 18:43:00,
2013-08-17 14:48:00,77.0,63.9,30.26,East,81,6.0,7.0,64,0.00,,---,0.00,VWS V14.01,2013-08-17 18:48:00,
2013-08-17 14:53:00,76.9,64.2,30.26,East,86,4.0,7.0,65,0.00,,---,0.00,VWS V14.01,2013-08-17 18:53:00,
2013-08-17 14:58:00,76.8,63.3,30.26,East,81,5.0,7.0,63,0.00,,---,0.00,VWS V14.01,2013-08-17 18:58:00,
2013-08-17 15:03:00,76.5,63.9,30.26,East,83,1.0,7.0,65,0.00,,---,0.00,VWS V14.01,2013-08-17 19:03:00,
2013-08-17 15:09:00,76.9,64.2,30.25,East,85,2.0,5.0,65,0.00,,---,0.00,VWS V14.01,2013-08-17 19:09:00,
2013-08-17 15:14:00,77.2,64.5,30.25,East,85,2.0,6.0,65,0.00,,---,0.00,VWS V14.01,2013-08-17 19:14:00,
2013-08-17 15:19:00,76.9,62.0,30.25,East,79,6.0,7.0,60,0.00,,---,0.00,VWS V14.01,2013-08-17 19:19:00,
2013-08-17 15:24:00,76.4,62.9,30.25,ENE,71,5.0,9.0,63,0.00,,---,0.00,VWS V14.01,2013-08-17 19:24:00,
2013-08-17 15:29:00,76.0,63.0,30.25,ENE,70,9.0,10.0,64,0.00,,---,0.00,VWS V14.01,2013-08-17 19:29:00,
2013-08-17 15:34:00,75.9,61.0,30.25,ENE,63,2.0,7.0,60,0.00,,---,0.00,VWS V14.01,2013-08-17 19:34:00,
2013-08-17 15:39:00,76.2,63.1,30.25,ENE,62,2.0,7.0,64,0.00,,---,0.00,VWS V14.01,2013-08-17 19:39:00,
2013-08-17 15:50:00,76.5,63.4,30.25,ENE,74,4.0,4.0,64,0.00,,---,0.00,VWS V14.01,2013-08-17 19:50:00,
2013-08-17 15:55:00,76.6,64.0,30.25,ENE,76,3.0,3.0,65,0.00,,---,0.00,VWS V14.01,2013-08-17 19:55:00,
2013-08-17 16:00:00,76.8,63.7,30.25,ENE,75,1.0,2.0,64,0.00,,---,0.00,VWS V14.01,2013-08-17 20:00:00,
2013-08-17 16:06:00,77.0,63.9,30.25,ENE,66,4.0,8.0,64,0.00,,---,0.00,VWS V14.01,2013-08-17 20:06:00,
2013-08-17 16:11:00,76.7,63.6,30.25,East,83,2.0,3.0,64,0.00,,---,0.00,VWS V14.01,2013-08-17 20:11:00,
2013-08-17 16:16:00,76.6,64.4,30.25,East,89,1.0,4.0,66,0.00,,---,0.00,VWS V14.01,2013-08-17 20:16:00,
2013-08-17 16:21:00,76.7,63.6,30.25,East,89,1.0,6.0,64,0.00,,---,0.00,VWS V14.01,2013-08-17 20:21:00,
2013-08-17 16:26:00,76.4,63.8,30.26,East,95,3.0,5.0,65,0.00,,---,0.00,VWS V14.01,2013-08-17 20:26:00,
2013-08-17 16:31:00,76.3,65.0,30.26,East,95,1.0,4.0,68,0.00,,---,0.00,VWS V14.01,2013-08-17 20:31:00,
2013-08-17 16:36:00,76.4,64.6,30.26,East,93,3.0,4.0,67,0.00,,---,0.00,VWS V14.01,2013-08-17 20:36:00,
2013-08-17 16:41:00,76.4,64.6,30.26,East,97,0.0,5.0,67,0.00,,---,0.00,VWS V14.01,2013-08-17 20:41:00,
2013-08-17 16:46:00,76.4,64.2,30.26,East,90,3.0,6.0,66,0.00,,---,0.00,VWS V14.01,2013-08-17 20:46:00,
2013-08-17 16:51:00,76.4,65.1,30.26,East,89,0.0,3.0,68,0.00,,---,0.00,VWS V14.01,2013-08-17 20:51:00,
2013-08-17 16:56:00,76.6,64.4,30.26,East,93,2.0,3.0,66,0.00,,---,0.00,VWS V14.01,2013-08-17 20:56:00,
2013-08-17 17:03:00,76.7,63.2,30.27,East,94,1.0,5.0,63,0.00,,---,0.00,VWS V14.01,2013-08-17 21:03:00,
2013-08-17 17:08:00,76.8,63.7,30.27,East,94,3.0,3.0,64,0.00,,---,0.00,VWS V14.01,2013-08-17 21:08:00,
2013-08-17 17:13:00,76.8,63.3,30.26,East,93,4.0,4.0,63,0.00,,---,0.00,VWS V14.01,2013-08-17 21:13:00,
2013-08-17 17:18:00,76.8,60.9,30.26,East,93,0.0,5.0,58,0.00,,---,0.00,VWS V14.01,2013-08-17 21:18:00,
2013-08-17 17:24:00,76.9,65.5,30.26,East,93,0.0,2.0,68,0.00,,---,0.00,VWS V14.01,2013-08-17 21:24:00,
2013-08-17 17:29:00,76.5,64.3,30.26,East,93,0.0,2.0,66,0.00,,---,0.00,VWS V14.01,2013-08-17 21:29:00,
2013-08-17 17:34:00,76.3,65.8,30.27,East,94,0.0,2.0,70,0.00,,---,0.00,VWS V14.01,2013-08-17 21:34:00,
2013-08-17 17:39:00,75.8,65.7,30.26,ESE,104,1.0,6.0,71,0.00,,---,0.00,VWS V14.01,2013-08-17 21:39:00,
2013-08-17 17:45:00,75.2,65.2,30.26,ESE,106,2.0,2.0,71,0.00,,---,0.00,VWS V14.01,2013-08-17 21:45:00,
2013-08-17 17:50:00,74.8,65.2,30.26,SE,131,0.0,2.0,72,0.00,,---,0.00,VWS V14.01,2013-08-17 21:50:00,
2013-08-17 17:55:00,74.4,64.8,30.27,SE,133,1.0,2.0,72,0.00,,---,0.00,VWS V14.01,2013-08-17 21:55:00,
2013-08-17 18:00:00,73.9,63.1,30.27,SSE,158,1.0,1.0,69,0.00,,---,0.00,VWS V14.01,2013-08-17 22:00:00,
2013-08-17 18:05:00,73.5,63.5,30.27,SSE,166,0.0,0.0,71,0.00,,---,0.00,VWS V14.01,2013-08-17 22:05:00,
2013-08-17 18:10:00,73.3,63.7,30.27,SSE,166,1.0,2.0,72,0.00,,---,0.00,VWS V14.01,2013-08-17 22:10:00,
2013-08-17 18:15:00,73.0,63.8,30.27,SSE,166,0.0,1.0,73,0.00,,---,0.00,VWS V14.01,2013-08-17 22:15:00,
2013-08-17 18:21:00,72.8,64.4,30.28,SSE,166,0.0,1.0,75,0.00,,---,0.00,VWS V14.01,2013-08-17 22:21:00,
2013-08-17 18:26:00,72.8,65.6,30.27,SSE,166,0.0,1.0,78,0.00,,---,0.00,VWS V14.01,2013-08-17 22:26:00,
2013-08-17 18:31:00,72.7,65.8,30.27,SSE,167,0.0,3.0,79,0.00,,---,0.00,VWS V14.01,2013-08-17 22:31:00,
2013-08-17 18:36:00,72.6,65.7,30.27,SSE,166,0.0,1.0,79,0.00,,---,0.00,VWS V14.01,2013-08-17 22:36:00,
2013-08-17 18:41:00,72.3,64.7,30.27,SSE,166,0.0,0.0,77,0.00,,---,0.00,VWS V14.01,2013-08-17 22:41:00,
2013-08-17 18:46:00,72.2,65.0,30.27,SSE,166,0.0,1.0,78,0.00,,---,0.00,VWS V14.01,2013-08-17 22:46:00,
2013-08-17 18:51:00,72.1,64.9,30.27,SSE,167,0.0,1.0,78,0.00,,---,0.00,VWS V14.01,2013-08-17 22:51:00,
2013-08-17 18:57:00,71.9,65.0,30.27,SSE,167,0.0,1.0,79,0.00,,---,0.00,VWS V14.01,2013-08-17 22:57:00,
2013-08-17 19:02:00,71.7,64.8,30.27,SSE,167,0.0,2.0,79,0.00,,---,0.00,VWS V14.01,2013-08-17 23:02:00,
2013-08-17 19:07:00,71.5,64.7,30.27,SSE,167,0.0,0.0,79,0.00,,---,0.00,VWS V14.01,2013-08-17 23:07:00,
2013-08-17 19:12:00,71.3,64.8,30.27,SSE,166,0.0,4.0,80,0.00,,---,0.00,VWS V14.01,2013-08-17 23:12:00,
2013-08-17 19:17:00,71.2,65.1,30.27,SSE,167,0.0,2.0,81,0.00,,---,0.00,VWS V14.01,2013-08-17 23:17:00,
2013-08-17 19:22:00,70.9,64.4,30.27,SSE,166,0.0,4.0,80,0.00,,---,0.00,VWS V14.01,2013-08-17 23:22:00,
2013-08-17 19:27:00,70.7,64.2,30.28,SSE,167,0.0,1.0,80,0.00,,---,0.00,VWS V14.01,2013-08-17 23:27:00,
2013-08-17 19:32:00,70.5,64.0,30.27,SSE,166,0.0,2.0,80,0.00,,---,0.00,VWS V14.01,2013-08-17 23:32:00,
2013-08-17 19:37:00,70.3,64.2,30.27,SSE,166,1.0,3.0,81,0.00,,---,0.00,VWS V14.01,2013-08-17 23:37:00,
2013-08-17 19:42:00,70.1,64.0,30.28,SSE,166,0.0,2.0,81,0.00,,---,0.00,VWS V14.01,2013-08-17 23:42:00,
2013-08-17 19:47:00,70.0,63.9,30.28,SSE,166,0.0,1.0,81,0.00,,---,0.00,VWS V14.01,2013-08-17 23:47:00,
2013-08-17 19:53:00,69.8,63.7,30.28,SSE,166,0.0,1.0,81,0.00,,---,0.00,VWS V14.01,2013-08-17 23:53:00,
2013-08-17 19:58:00,69.5,63.4,30.27,SSE,166,0.0,0.0,81,0.00,,---,0.00,VWS V14.01,2013-08-17 23:58:00,
2013-08-17 20:03:00,69.4,63.7,30.27,SSE,166,0.0,2.0,82,0.00,,---,0.00,VWS V14.01,2013-08-18 00:03:00,
2013-08-17 20:08:00,69.2,63.5,30.28,SSE,166,0.0,2.0,82,0.00,,---,0.00,VWS V14.01,2013-08-18 00:08:00,
2013-08-17 20:13:00,69.1,63.7,30.28,SSE,166,0.0,4.0,83,0.00,,---,0.00,VWS V14.01,2013-08-18 00:13:00,
2013-08-17 20:18:00,69.0,63.6,30.28,SSE,166,0.0,1.0,83,0.00,,---,0.00,VWS V14.01,2013-08-18 00:18:00,
2013-08-17 20:23:00,68.8,63.4,30.28,SSE,167,0.0,1.0,83,0.00,,---,0.00,VWS V14.01,2013-08-18 00:23:00,
2013-08-17 20:29:00,68.6,63.6,30.28,SSE,167,0.0,3.0,84,0.00,,---,0.00,VWS V14.01,2013-08-18 00:29:00,
2013-08-17 20:34:00,68.5,63.8,30.28,SSE,167,3.0,5.0,85,0.00,,---,0.00,VWS V14.01,2013-08-18 00:34:00,
2013-08-17 20:39:00,68.3,63.3,30.28,SSE,166,0.0,4.0,84,0.00,,---,0.00,VWS V14.01,2013-08-18 00:39:00,
2013-08-17 20:44:00,68.2,63.2,30.28,SSE,166,1.0,2.0,84,0.00,,---,0.00,VWS V14.01,2013-08-18 00:44:00,
2013-08-17 20:49:00,68.2,63.2,30.29,SSE,166,0.0,2.0,84,0.00,,---,0.00,VWS V14.01,2013-08-18 00:49:00,
2013-08-17 20:54:00,68.2,63.2,30.29,SSE,166,0.0,3.0,84,0.00,,---,0.00,VWS V14.01,2013-08-18 00:54:00,
2013-08-17 20:59:00,68.1,63.1,30.29,SSE,167,0.0,2.0,84,0.00,,---,0.00,VWS V14.01,2013-08-18 00:59:00,
2013-08-17 21:04:00,67.9,62.5,30.29,SSE,166,0.0,1.0,83,0.00,,---,0.00,VWS V14.01,2013-08-18 01:04:00,
2013-08-17 21:09:00,67.9,62.5,30.29,SSE,166,0.0,1.0,83,0.00,,---,0.00,VWS V14.01,2013-08-18 01:09:00,
2013-08-17 21:14:00,68.0,62.3,30.29,SSE,167,0.0,1.0,82,0.00,,---,0.00,VWS V14.01,2013-08-18 01:14:00,
2013-08-17 21:19:00,68.0,62.3,30.29,SSE,166,0.0,1.0,82,0.00,,---,0.00,VWS V14.01,2013-08-18 01:19:00,
2013-08-17 21:24:00,67.9,62.2,30.30,SSE,166,1.0,4.0,82,0.00,,---,0.00,VWS V14.01,2013-08-18 01:24:00,
2013-08-17 21:29:00,67.9,62.2,30.30,SSE,167,0.0,2.0,82,0.00,,---,0.00,VWS V14.01,2013-08-18 01:29:00,
2013-08-17 21:34:00,67.8,62.1,30.29,SSE,167,0.0,1.0,82,0.00,,---,0.00,VWS V14.01,2013-08-18 01:34:00,
2013-08-17 21:40:00,67.6,62.3,30.29,SSE,167,0.0,0.0,83,0.00,,---,0.00,VWS V14.01,2013-08-18 01:40:00,
2013-08-17 21:45:00,67.3,62.3,30.29,SSE,167,0.0,0.0,84,0.00,,---,0.00,VWS V14.01,2013-08-18 01:45:00,
2013-08-17 21:50:00,67.1,62.5,30.29,SSE,167,0.0,0.0,85,0.00,,---,0.00,VWS V14.01,2013-08-18 01:50:00,
2013-08-17 21:55:00,66.9,62.6,30.29,SSE,167,0.0,0.0,86,0.00,,---,0.00,VWS V14.01,2013-08-18 01:55:00,
2013-08-17 22:00:00,66.8,62.5,30.29,SSE,166,0.0,0.0,86,0.00,,---,0.00,VWS V14.01,2013-08-18 02:00:00,
2013-08-17 22:05:00,66.6,62.3,30.29,SSE,166,0.0,0.0,86,0.00,,---,0.00,VWS V14.01,2013-08-18 02:05:00,
2013-08-17 22:10:00,66.5,62.2,30.29,SSE,167,0.0,0.0,86,0.00,,---,0.00,VWS V14.01,2013-08-18 02:10:00,
2013-08-17 22:15:00,66.4,62.4,30.29,SSE,166,0.0,0.0,87,0.00,,---,0.00,VWS V14.01,2013-08-18 02:15:00,
2013-08-17 22:20:00,66.3,62.3,30.29,SSE,166,0.0,0.0,87,0.00,,---,0.00,VWS V14.01,2013-08-18 02:20:00,
2013-08-17 22:25:00,66.1,62.1,30.29,SSE,166,0.0,0.0,87,0.00,,---,0.00,VWS V14.01,2013-08-18 02:25:00,
2013-08-17 22:30:00,66.0,62.0,30.29,SSE,167,0.0,1.0,87,0.00,,---,0.00,VWS V14.01,2013-08-18 02:30:00,
2013-08-17 22:37:00,65.9,61.3,30.29,SSE,167,0.0,1.0,85,0.00,,---,0.00,VWS V14.01,2013-08-18 02:37:00,
2013-08-17 22:42:00,65.8,61.2,30.30,SSE,167,0.0,0.0,85,0.00,,---,0.00,VWS V14.01,2013-08-18 02:42:00,
2013-08-17 22:47:00,65.7,60.7,30.30,SSE,166,0.0,2.0,84,0.00,,---,0.00,VWS V14.01,2013-08-18 02:47:00,
2013-08-17 22:52:00,65.6,61.0,30.30,SSE,167,0.0,0.0,85,0.00,,---,0.00,VWS V14.01,2013-08-18 02:52:00,
2013-08-17 22:57:00,65.4,60.8,30.30,SSE,166,0.0,2.0,85,0.00,,---,0.00,VWS V14.01,2013-08-18 02:57:00,
2013-08-17 23:02:00,65.5,61.5,30.30,SSE,166,0.0,2.0,87,0.00,,---,0.00,VWS V14.01,2013-08-18 03:02:00,
2013-08-17 23:07:00,65.5,61.5,30.30,SSE,166,0.0,1.0,87,0.00,,---,0.00,VWS V14.01,2013-08-18 03:07:00,
2013-08-17 23:12:00,65.5,61.9,30.30,SSE,167,2.0,2.0,88,0.00,,---,0.00,VWS V14.01,2013-08-18 03:12:00,
2013-08-17 23:17:00,65.4,62.1,30.30,SSE,167,0.0,0.0,89,0.00,,---,0.00,VWS V14.01,2013-08-18 03:17:00,
2013-08-17 23:22:00,65.4,62.4,30.30,SSE,166,0.0,1.0,90,0.00,,---,0.00,VWS V14.01,2013-08-18 03:22:00,
2013-08-17 23:27:00,65.5,62.8,30.30,SSE,166,0.0,2.0,91,0.00,,---,0.00,VWS V14.01,2013-08-18 03:27:00,
2013-08-17 23:32:00,65.4,62.7,30.30,SSE,166,0.0,1.0,91,0.00,,---,0.00,VWS V14.01,2013-08-18 03:32:00,
2013-08-17 23:37:00,65.4,62.7,30.30,SSE,167,0.0,0.0,91,0.00,,---,0.00,VWS V14.01,2013-08-18 03:37:00,
2013-08-17 23:42:00,65.3,62.6,30.30,SSE,167,0.0,0.0,91,0.00,,---,0.00,VWS V14.01,2013-08-18 03:42:00,
2013-08-17 23:47:00,65.3,62.9,30.30,SSE,166,0.0,1.0,92,0.00,,---,0.00,VWS V14.01,2013-08-18 03:47:00,
2013-08-17 23:52:00,65.2,62.8,30.30,SSE,166,0.0,2.0,92,0.00,,---,0.00,VWS V14.01,2013-08-18 03:52:00,
2013-08-17 23:57:00,65.2,62.8,30.30,SSE,166,1.0,3.0,92,0.00,,---,0.00,VWS V14.01,2013-08-18 03:57:00,